IZ1KGA-1 Weather Reports


time (UTC)temp
F
wind
direction
speed
knots
gust
knots
rain 1hr
in
rain 24hr
in
rain mn
in
humidity
%
barometer
mb
20260507235057 55 0 0.0 0.0 0.00 0.00 0.00 79 1015.2
20260507234603 55 0 0.0 0.0 0.00 0.00 0.00 79 1015.3
20260507234057 55 0 0.0 0.0 0.00 0.00 0.00 79 1015.3
20260507233558 55 0 0.0 0.0 0.00 0.00 0.00 79 1015.4
20260507233104 55 0 0.0 0.0 0.00 0.00 0.00 79 1015.4
20260507232558 56 0 0.0 0.0 0.00 0.00 0.00 79 1015.5
20260507232057 56 0 0.0 0.0 0.00 0.00 0.00 78 1015.4
20260507231600 56 0 0.0 0.0 0.00 0.00 0.00 78 1015.4
20260507231101 56 0 0.0 0.0 0.00 0.00 0.00 78 1015.5
20260507230601 56 0 0.0 0.0 0.00 0.00 0.00 78 1015.4
20260507230057 56 0 0.0 0.0 0.00 0.00 0.00 77 1015.4
20260507225557 56 0 0.0 0.0 0.00 0.00 0.00 77 1015.4
20260507225055 56 0 0.0 0.0 0.00 0.00 0.00 77 1015.3
20260507224601 56 0 0.0 0.0 0.00 0.00 0.00 77 1015.4
20260507224057 56 0 0.0 0.0 0.00 0.00 0.00 77 1015.2
20260507223557 56 0 0.0 0.0 0.00 0.00 0.00 77 1015.3
20260507223058 56 0 0.0 0.0 0.00 0.00 0.00 77 1015.4
20260507222557 56 0 0.0 0.0 0.00 0.00 0.00 77 1015.4
20260507222057 56 0 0.0 0.0 0.00 0.00 0.00 77 1015.4
20260507221556 56 0 0.0 0.0 0.00 0.00 0.00 77 1015.4
20260507221058 56 0 0.0 0.0 0.00 0.00 0.00 77 1015.4
20260507220558 56 0 0.0 0.0 0.00 0.00 0.00 77 1015.4
20260507220059 56 0 0.0 0.0 0.00 0.00 0.00 77 1015.3
20260507215556 56 0 0.0 0.0 0.00 0.00 0.00 76 1015.3
20260507215059 56 0 0.0 0.0 0.00 0.00 0.00 76 1015.2
20260507214558 56 0 0.0 0.0 0.00 0.00 0.00 76 1015.2
20260507214055 56 0 0.0 3.5 0.00 0.00 0.00 75 1015.2
20260507213601 56 0 0.0 5.2 0.00 0.00 0.00 75 1015.1
20260507213059 56 0 2.6 5.2 0.00 0.00 0.00 73 1015.1
20260507212558 56 257 0.0 3.5 0.00 0.00 0.00 75 1015.0
20260507212058 56 0 0.0 0.0 0.00 0.00 0.00 75 1015.1
20260507211558 56 0 0.0 0.0 0.00 0.00 0.00 75 1015.2
20260507211057 56 0 0.0 0.0 0.00 0.00 0.00 74 1015.3
20260507210600 56 0 0.0 0.0 0.00 0.00 0.00 76 1015.3
20260507210058 56 0 0.0 0.0 0.00 0.00 0.00 74 1015.2
20260507205556 56 0 0.0 0.0 0.00 0.00 0.00 73 1015.1
20260507205058 56 0 0.0 0.0 0.00 0.00 0.00 75 1015.1
20260507204555 56 0 0.0 0.0 0.00 0.00 0.00 75 1015.1
20260507204057 56 0 0.0 0.0 0.00 0.00 0.00 74 1014.8
20260507203558 56 0 0.0 0.0 0.00 0.00 0.00 73 1014.9
20260507203059 56 0 0.0 0.0 0.00 0.00 0.00 73 1014.7
20260507202555 57 0 0.0 0.0 0.00 0.00 0.00 73 1014.7
20260507202057 57 0 0.0 0.0 0.00 0.00 0.00 72 1014.6
20260507201556 57 0 0.0 0.0 0.00 0.00 0.00 73 1014.4
20260507201055 57 0 0.0 0.0 0.00 0.00 0.00 74 1014.4
20260507200555 57 0 0.0 0.0 0.00 0.00 0.00 72 1014.4
20260507200100 57 0 0.0 0.0 0.00 0.00 0.00 72 1014.2
20260507195558 58 0 0.0 0.0 0.00 0.00 0.00 74 1014.3
20260507195055 58 0 0.0 0.0 0.00 0.00 0.00 73 1014.3
20260507194603 58 0 0.0 0.0 0.00 0.00 0.00 74 1014.2
20260507194055 58 0 0.0 0.0 0.00 0.00 0.00 74 1014.2
20260507193555 58 0 0.0 0.0 0.00 0.00 0.00 73 1014.0
20260507193100 58 0 0.0 0.0 0.00 0.00 0.00 73 1013.9
20260507192556 58 0 0.0 0.0 0.00 0.00 0.00 73 1013.7
20260507192057 58 0 0.0 0.0 0.00 0.00 0.00 73 1013.6
20260507191602 59 0 0.0 0.0 0.00 0.00 0.00 72 1013.8
20260507191056 59 0 0.0 0.0 0.00 0.00 0.00 72 1014.0
20260507190557 59 0 0.0 0.0 0.00 0.00 0.00 72 1014.0
20260507190058 59 0 0.0 0.0 0.00 0.00 0.00 72 1013.7
20260507185558 59 0 0.0 0.0 0.00 0.00 0.00 71 1013.8
20260507185056 59 0 0.0 0.0 0.00 0.00 0.00 70 1013.6
20260507184556 59 0 0.0 0.0 0.00 0.00 0.00 70 1013.5
20260507184057 60 0 0.0 0.0 0.00 0.00 0.00 71 1013.5
20260507183558 60 0 0.0 0.0 0.00 0.00 0.00 69 1013.5
20260507183105 60 0 0.0 0.0 0.00 0.00 0.00 68 1013.4
20260507182557 60 0 0.0 5.2 0.00 0.00 0.00 70 1013.5
20260507182058 61 0 0.0 7.8 0.00 0.00 0.00 68 1013.3
20260507181556 61 0 0.9 7.8 0.00 0.00 0.00 67 1013.1
20260507181100 61 194 0.0 0.0 0.00 0.00 0.00 69 1013.1
20260507180558 62 0 0.0 0.0 0.00 0.00 0.00 69 1013.1
20260507180057 62 0 0.0 0.0 0.00 0.00 0.00 68 1013.1
20260507175554 63 0 0.0 0.0 0.00 0.00 0.00 67 1013.0
20260507175057 63 0 0.0 5.2 0.00 0.00 0.00 64 1012.9
20260507174556 63 0 0.0 8.7 0.00 0.00 0.00 64 1013.0
20260507174057 63 0 3.5 8.7 0.00 0.00 0.00 63 1012.9
20260507173556 63 201 0.0 4.3 0.00 0.00 0.00 64 1012.9
20260507173103 64 209 0.0 6.1 0.00 0.00 0.00 65 1012.8
20260507172600 64 0 0.9 6.1 0.00 0.00 0.00 64 1012.8
20260507172056 64 0 0.0 0.9 0.00 0.00 0.00 63 1012.7
20260507171557 64 0 0.0 7.0 0.00 0.00 0.00 63 1012.7
20260507171056 65 0 0.9 7.0 0.00 0.00 0.00 61 1012.7
20260507170558 65 122 0.9 8.7 0.00 0.00 0.00 61 1012.8
20260507170059 65 133 0.9 8.7 0.00 0.00 0.00 59 1012.7
20260507165558 65 117 1.7 8.7 0.00 0.00 0.00 59 1012.7
20260507165057 65 117 0.0 7.0 0.00 0.00 0.00 60 1012.7
20260507164555 65 0 1.7 7.0 0.00 0.00 0.00 59 1012.6
20260507164055 65 0 0.0 9.6 0.00 0.00 0.00 61 1012.7
20260507163556 66 0 2.6 9.6 0.00 0.00 0.00 59 1012.7
20260507163314 66 84 2.6 9.6 0.00 0.00 0.00 59 1012.7
20260507162555 66 123 0.0 8.7 0.00 0.00 0.00 61 1012.6
20260507162059 66 0 2.6 8.7 0.00 0.00 0.00 60 1012.7
20260507161559 65 114 2.6 7.8 0.00 0.00 0.00 61 1012.7
20260507161058 65 0 0.0 7.8 0.00 0.00 0.00 61 1012.5
20260507160556 65 98 1.7 6.1 0.00 0.00 0.00 60 1012.5
20260507160057 66 130 0.0 7.8 0.00 0.00 0.00 61 1012.5
20260507155556 66 0 2.6 7.8 0.00 0.00 0.00 61 1012.4
20260507155059 66 0 0.0 7.0 0.00 0.00 0.00 61 1012.3
20260507154559 66 134 0.9 7.0 0.00 0.00 0.00 61 1012.3
20260507154057 66 0 0.0 7.8 0.00 0.00 0.00 62 1012.4
20260507153556 66 111 0.9 10.4 0.00 0.00 0.00 59 1012.4
20260507153106 66 108 3.5 10.4 0.00 0.00 0.00 59 1012.4
20260507152558 67 104 3.5 11.3 0.00 0.00 0.00 58 1012.3
20260507152056 67 128 3.5 11.3 0.00 0.00 0.00 58 1012.3
20260507151558 67 112 2.6 11.3 0.00 0.00 0.00 58 1012.3
20260507151056 67 113 2.6 11.3 0.00 0.00 0.00 57 1012.2
20260507150555 66 128 2.6 8.7 0.00 0.00 0.00 60 1012.5
20260507145557 66 128 3.5 8.7 0.00 0.02 0.00 58 1012.5
20260507145058 66 166 2.6 9.6 0.00 0.02 0.00 57 1012.5
20260507144557 67 149 3.5 9.6 0.00 0.02 0.00 57 1012.5
20260507144056 67 183 3.5 11.3 0.00 0.02 0.00 56 1012.5
20260507143556 67 143 4.3 13.9 0.00 0.02 0.00 58 1012.5
20260507143106 67 360 5.2 13.9 0.00 0.02 0.00 59 1012.6
20260507142817 67 360 7.8 13.9 0.00 0.02 0.00 58 1012.7
20260507141057 67 107 4.3 12.2 0.00 0.02 0.00 59 1012.6
20260507140555 67 115 4.3 11.3 0.00 0.02 0.00 59 1012.7
20260507140106 67 76 6.1 11.3 0.00 0.02 0.00 59 1012.7
20260507135557 66 78 6.1 11.3 0.00 0.02 0.00 60 1012.8
20260507135056 66 88 4.3 11.3 0.00 0.02 0.00 60 1012.8
20260507134604 66 91 3.5 12.2 0.00 0.02 0.00 60 1012.8
20260507134056 66 121 7.0 12.2 0.00 0.02 0.00 60 1012.8
20260507133557 66 142 5.2 13.0 0.00 0.02 0.00 61 1012.9
20260507133108 65 65 6.1 13.0 0.00 0.02 0.00 61 1012.9
20260507132557 65 135 4.3 12.2 0.00 0.02 0.00 61 1013.0
20260507132055 65 109 2.6 12.2 0.00 0.02 0.00 61 1013.0
20260507131608 65 138 3.5 11.3 0.00 0.02 0.00 60 1013.0
20260507131056 66 128 2.6 11.3 0.00 0.02 0.00 60 1013.1
20260507130556 66 126 4.3 14.8 0.00 0.02 0.00 59 1013.1
20260507130107 66 136 5.2 14.8 0.00 0.02 0.00 58 1013.0
20260507125555 66 105 5.2 16.5 0.00 0.02 0.00 59 1013.1
20260507125055 67 77 9.6 16.5 0.00 0.02 0.00 58 1013.0
20260507124602 67 92 6.1 13.9 0.00 0.02 0.00 60 1013.1
20260507124055 66 138 3.5 13.0 0.00 0.02 0.00 59 1013.0
20260507123556 66 86 4.3 13.0 0.00 0.02 0.00 60 1013.2
20260507123100 66 128 6.1 13.0 0.00 0.02 0.00 58 1013.2
20260507122556 66 136 2.6 12.2 0.00 0.02 0.00 59 1013.1
20260507122057 66 97 6.1 13.9 0.00 0.02 0.00 59 1013.3
20260507121602 66 104 7.0 13.9 0.00 0.02 0.00 59 1013.4
20260507121058 66 86 7.8 13.9 0.00 0.02 0.00 59 1013.3
20260507120555 66 87 7.0 13.9 0.00 0.02 0.00 60 1013.3
20260507120057 66 105 6.1 13.9 0.00 0.02 0.00 60 1013.3
20260507115555 66 88 7.0 13.9 0.00 0.02 0.00 60 1013.4
20260507115054 66 118 7.0 13.9 0.00 0.02 0.00 60 1013.4
20260507114610 66 107 7.8 14.8 0.00 0.02 0.00 59 1013.5
20260507114054 66 146 7.8 15.6 0.00 0.02 0.00 61 1013.6
20260507113554 66 115 8.7 16.5 0.00 0.02 0.00 61 1013.6
20260507113054 65 122 6.1 16.5 0.00 0.02 0.00 61 1013.7
20260507112559 65 89 5.2 14.8 0.00 0.02 0.00 61 1013.7
20260507112056 65 123 6.1 14.8 0.00 0.02 0.00 60 1013.7
20260507111556 66 121 8.7 14.8 0.00 0.02 0.00 60 1013.8
20260507111056 66 100 6.1 13.0 0.00 0.02 0.00 61 1013.9
20260507110555 65 89 6.1 12.2 0.00 0.02 0.00 61 1013.9
20260507110101 65 117 7.8 13.0 0.00 0.02 0.00 62 1013.9
20260507105554 65 165 7.0 14.8 0.00 0.02 0.00 60 1013.8
20260507105054 65 65 7.8 14.8 0.00 0.02 0.00 59 1014.0
20260507104601 66 94 7.8 14.8 0.00 0.02 0.00 59 1014.0
20260507104055 66 360 5.2 14.8 0.00 0.02 0.00 58 1014.0
20260507103554 67 109 6.1 13.0 0.00 0.02 0.00 59 1013.9
20260507103128 67 99 5.2 14.8 0.00 0.02 0.00 59 1014.0
20260507102554 67 33 8.7 14.8 0.00 0.02 0.00 58 1014.0
20260507102054 67 104 6.1 14.8 0.00 0.02 0.00 57 1014.0
20260507101556 67 89 5.2 11.3 0.00 0.02 0.00 57 1014.1
20260507101054 66 136 2.6 11.3 0.00 0.02 0.00 56 1014.1
20260507100554 66 163 6.1 11.3 0.00 0.02 0.00 58 1014.0
20260507100107 66 0 3.5 10.4 0.00 0.02 0.00 58 1014.1
20260507095555 66 117 4.3 10.4 0.00 0.02 0.00 59 1014.0
20260507095056 66 94 4.3 10.4 0.00 0.02 0.00 60 1014.0
20260507094601 66 94 4.3 11.3 0.00 0.02 0.00 59 1014.0
20260507094054 66 155 3.5 11.3 0.00 0.02 0.00 61 1014.1
20260507093554 65 128 1.7 8.7 0.00 0.02 0.00 62 1014.1
20260507093059 65 113 3.5 10.4 0.00 0.02 0.00 59 1014.0
20260507092555 65 123 3.5 10.4 0.00 0.02 0.00 61 1014.0
20260507092054 65 94 3.5 8.7 0.00 0.02 0.00 61 1014.0
20260507091554 65 148 0.9 8.7 0.00 0.02 0.00 61 1014.1
20260507091054 65 118 0.9 7.8 0.00 0.02 0.00 62 1014.0
20260507090555 65 0 0.0 0.0 0.00 0.02 0.00 63 1014.2
20260507090100 65 0 0.0 0.0 0.00 0.02 0.00 64 1014.0
20260507085555 64 0 0.0 0.0 0.00 0.02 0.00 63 1014.0
20260507085056 64 0 0.0 0.0 0.00 0.02 0.00 64 1014.0
20260507084605 64 0 0.0 0.0 0.00 0.02 0.00 64 1014.1
20260507084057 63 0 0.0 0.0 0.00 0.02 0.00 65 1014.0
20260507083557 63 0 0.0 0.0 0.00 0.02 0.00 66 1014.0
20260507083057 63 0 0.0 0.0 0.00 0.02 0.00 65 1014.0
20260507082557 63 0 0.0 0.0 0.00 0.02 0.00 65 1014.1
20260507082102 62 0 0.0 0.0 0.00 0.02 0.00 66 1014.3
20260507081559 62 0 0.0 0.0 0.00 0.02 0.00 65 1014.3
20260507081055 62 0 0.0 0.0 0.00 0.02 0.00 65 1014.2
20260507080559 62 0 0.0 0.0 0.00 0.02 0.00 65 1014.3
20260507080100 62 0 0.0 0.0 0.00 0.02 0.00 66 1014.2
20260507075601 62 0 0.0 0.0 0.00 0.02 0.00 64 1014.3
20260507075102 62 0 0.0 0.0 0.00 0.02 0.00 64 1014.2
20260507074608 61 0 0.0 0.0 0.00 0.02 0.00 64 1014.3
20260507074056 61 0 0.0 0.0 0.00 0.02 0.00 64 1014.3
20260507073559 60 0 0.0 0.0 0.00 0.02 0.00 65 1014.3
20260507073112 60 0 0.0 0.0 0.00 0.02 0.00 63 1014.4
20260507072556 59 0 0.0 0.0 0.00 0.02 0.00 63 1014.3
20260507072056 59 0 0.0 0.0 0.00 0.02 0.00 64 1014.3
20260507071605 58 0 0.0 0.0 0.00 0.02 0.00 65 1014.3
20260507071056 58 0 0.0 0.0 0.00 0.02 0.00 65 1014.2
20260507070556 57 0 0.0 0.0 0.00 0.02 0.00 65 1014.3
20260507070106 57 0 0.0 0.0 0.00 0.02 0.00 65 1014.0
20260507065556 56 0 0.0 0.0 0.00 0.03 0.00 67 1014.1
20260507065055 55 0 0.0 0.0 0.00 0.03 0.00 71 1014.1
20260507064600 54 0 0.0 0.0 0.00 0.03 0.00 73 1014.1
20260507064059 53 0 0.0 0.0 0.00 0.03 0.00 75 1014.1
20260507063557 52 0 0.0 0.0 0.00 0.03 0.00 77 1014.0
20260507063101 51 0 0.0 0.0 0.00 0.03 0.00 80 1014.1
20260507062600 50 0 0.0 0.0 0.00 0.03 0.00 82 1014.0
20260507062056 49 0 0.0 0.0 0.00 0.03 0.00 83 1014.0
20260507061557 49 0 0.0 0.0 0.00 0.03 0.00 83 1013.9
20260507061057 48 0 0.0 0.0 0.00 0.03 0.00 84 1013.9
20260507060556 48 0 0.0 0.0 0.00 0.03 0.00 86 1013.9
20260507060103 47 0 0.0 0.0 0.00 0.03 0.00 88 1013.9
20260507055556 47 0 0.0 0.0 0.00 0.08 0.00 88 1013.9
20260507055059 46 0 0.0 0.0 0.00 0.08 0.00 89 1013.9
20260507054613 45 0 0.0 0.0 0.00 0.08 0.00 88 1013.9
20260507054056 45 0 0.0 0.0 0.00 0.08 0.00 88 1013.9
20260507053557 45 0 0.0 0.0 0.00 0.08 0.00 88 1013.8
20260507053107 45 0 0.0 0.0 0.00 0.08 0.00 89 1013.6
20260507052556 45 0 0.0 0.0 0.00 0.08 0.00 88 1013.6
20260507052059 44 0 0.0 0.0 0.00 0.08 0.00 89 1013.6
20260507051601 44 0 0.0 0.0 0.00 0.08 0.00 89 1013.5
20260507051056 44 0 0.0 0.0 0.00 0.08 0.00 89 1013.3
20260507050556 44 0 0.0 0.0 0.00 0.08 0.00 88 1013.4
20260507050100 44 0 0.0 0.0 0.00 0.08 0.00 88 1013.3
20260507045557 44 0 0.0 0.0 0.00 0.33 0.00 88 1013.3
20260507045052 44 0 0.0 0.0 0.00 0.33 0.00 88 1013.1
20260507044606 44 0 0.0 0.0 0.00 0.33 0.00 88 1013.2
20260507044056 44 0 0.0 0.0 0.00 0.33 0.00 88 1013.1
20260507043556 44 0 0.0 0.0 0.00 0.33 0.00 88 1013.0
20260507043101 44 0 0.0 0.0 0.00 0.33 0.00 88 1013.0
20260507042600 44 0 0.0 0.0 0.00 0.33 0.00 88 1012.9
20260507042057 44 0 0.0 0.0 0.00 0.33 0.00 88 1012.8
20260507041604 44 0 0.0 0.0 0.00 0.33 0.00 88 1012.7
20260507041103 44 0 0.0 0.0 0.00 0.33 0.00 88 1012.8
20260507040557 44 0 0.0 0.0 0.00 0.33 0.00 88 1012.7
20260507040057 45 0 0.0 0.0 0.00 0.33 0.00 88 1012.8
20260507035556 45 0 0.0 0.0 0.00 0.46 0.00 88 1012.8
20260507035054 45 0 0.0 0.0 0.00 0.46 0.00 88 1012.8
20260507034603 45 0 0.0 0.0 0.00 0.46 0.00 88 1012.8
20260507034056 45 0 0.0 0.0 0.00 0.46 0.00 88 1012.9
20260507033553 45 0 0.0 0.0 0.00 0.46 0.00 88 1012.8
20260507033105 45 0 0.0 0.0 0.00 0.46 0.00 88 1012.8
20260507032557 45 0 0.0 0.0 0.00 0.46 0.00 88 1012.7
20260507032101 45 0 0.0 0.0 0.00 0.46 0.00 88 1012.7
20260507031600 45 0 0.0 0.0 0.00 0.46 0.00 87 1012.7
20260507031057 45 0 0.0 0.0 0.00 0.46 0.00 87 1012.8
20260507030557 45 0 0.0 0.0 0.00 0.46 0.00 87 1012.9
20260507030105 45 0 0.0 0.0 0.00 0.46 0.00 88 1013.0
20260507025556 45 0 0.0 0.0 0.00 0.57 0.00 88 1013.0
20260507025056 45 0 0.0 0.0 0.00 0.57 0.00 88 1013.0
20260507024600 45 0 0.0 0.0 0.00 0.57 0.00 88 1012.9
20260507024056 45 0 0.0 0.0 0.00 0.57 0.00 88 1013.0
20260507023556 45 0 0.0 0.0 0.00 0.57 0.00 88 1012.9
20260507023058 45 0 0.0 0.0 0.00 0.57 0.00 87 1012.9
20260507022557 45 0 0.0 0.0 0.00 0.56 0.00 87 1012.9
20260507022055 45 0 0.0 0.0 0.00 0.56 0.00 87 1013.0
20260507021646 45 0 0.0 0.0 0.00 0.56 0.00 87 1012.8
20260507021053 45 0 0.0 0.0 0.00 0.56 0.00 87 1012.8
20260507020556 45 0 0.0 0.0 0.00 0.56 0.00 87 1012.8
20260507020135 45 0 0.0 0.0 0.00 0.56 0.00 87 1012.7
20260507015603 45 0 0.0 0.0 0.00 0.57 0.00 87 1012.7
20260507015057 45 0 0.0 0.0 0.00 0.57 0.00 87 1012.7
20260507014621 45 0 0.0 0.0 0.00 0.57 0.00 87 1012.5
20260507014057 45 0 0.0 0.0 0.00 0.57 0.00 87 1012.5
20260507013557 45 0 0.0 2.6 0.00 0.57 0.00 86 1012.5
20260507013102 45 0 0.0 2.6 0.00 0.57 0.00 86 1012.4
20260507012556 46 0 0.0 2.6 0.00 0.57 0.00 86 1012.4
20260507012057 46 0 0.0 0.0 0.00 0.57 0.00 86 1012.4
20260507011602 46 0 0.0 2.6 0.00 0.57 0.00 86 1012.4
20260507011056 46 0 0.0 2.6 0.00 0.57 0.00 86 1012.3
20260507010556 46 256 0.9 2.6 0.00 0.57 0.00 86 1012.3
20260507010055 46 256 0.0 0.0 0.00 0.57 0.00 86 1012.3
20260507005556 46 0 0.0 0.0 0.00 0.62 0.00 86 1012.2
20260507005057 46 0 0.0 0.0 0.00 0.62 0.00 86 1012.2
20260507004558 46 0 0.0 0.0 0.00 0.62 0.00 86 1012.2
20260507004057 46 0 0.0 0.0 0.00 0.62 0.00 86 1012.2
20260507003557 46 0 0.0 0.0 0.00 0.62 0.00 86 1012.2
20260507003056 46 0 0.0 0.0 0.00 0.62 0.00 85 1012.0
20260507002556 47 0 0.0 0.0 0.00 0.62 0.00 85 1012.0
20260507002057 47 0 0.0 0.0 0.00 0.62 0.00 85 1012.0
20260507001605 47 0 0.0 0.0 0.00 0.62 0.00 85 1012.0
20260507001056 47 0 0.0 0.0 0.00 0.62 0.00 85 1011.9
20260507000600 47 0 0.0 0.0 0.00 0.62 0.00 85 1012.0
20260507000124 47 0 0.0 0.0 0.00 0.62 0.00 85 1011.8
20260506235557 48 0 0.0 0.0 0.00 0.62 0.00 85 1011.9